date,time,SUV Intensity [MED/Hr],UV Index,Daily total [MED],Since Last [MED]
08/04/2022,00:06:40,0.000,0.0,0.0,0.0
08/04/2022,00:07:39,0.000,0.0,0.0,0.0
08/04/2022,00:08:48,0.000,0.0,0.0,0.0
08/04/2022,00:09:39,0.000,0.0,0.0,0.0
08/04/2022,00:10:40,0.000,0.0,0.0,0.0
08/04/2022,00:11:39,0.001,0.0,0.0,0.0
08/04/2022,00:12:40,0.001,0.0,0.0,0.0
08/04/2022,00:13:39,0.000,0.0,0.0,0.0
08/04/2022,00:14:40,0.000,0.0,0.0,0.0
08/04/2022,00:15:40,0.000,0.0,0.0,0.0
08/04/2022,00:16:48,0.001,0.0,0.0,0.0
08/04/2022,00:17:39,0.001,0.0,0.0,0.0
08/04/2022,00:18:40,0.000,0.0,0.0,0.0
08/04/2022,00:19:40,0.001,0.0,0.0,0.0
08/04/2022,00:20:40,0.000,0.0,0.0,0.0
08/04/2022,00:21:39,0.000,0.0,0.0,0.0
08/04/2022,00:22:46,0.000,0.0,0.0,0.0
08/04/2022,00:23:39,0.000,0.0,0.0,0.0
08/04/2022,00:24:39,-0.000,0.0,0.0,0.0
08/04/2022,00:25:40,-0.001,0.0,0.0,0.0
08/04/2022,00:26:40,-0.000,0.0,0.0,0.0
08/04/2022,00:27:40,-0.000,0.0,0.0,0.0
08/04/2022,00:28:40,-0.000,0.0,0.0,0.0
08/04/2022,00:29:48,0.000,0.0,0.0,0.0
08/04/2022,00:30:40,-0.001,0.0,0.0,0.0
08/04/2022,00:31:39,0.000,0.0,0.0,0.0
08/04/2022,00:32:40,0.001,0.0,0.0,0.0
08/04/2022,00:33:39,0.000,0.0,0.0,0.0
08/04/2022,00:34:40,-0.001,0.0,0.0,0.0
08/04/2022,00:35:40,0.000,0.0,0.0,0.0
08/04/2022,00:36:40,-0.001,0.0,0.0,0.0
08/04/2022,00:37:40,0.001,0.0,0.0,0.0
08/04/2022,00:38:40,0.001,0.0,0.0,0.0
08/04/2022,00:39:39,0.000,0.0,0.0,0.0
08/04/2022,00:40:48,0.000,0.0,0.0,0.0
08/04/2022,00:41:40,0.001,0.0,0.0,0.0
08/04/2022,00:42:40,-0.000,0.0,0.0,0.0
08/04/2022,00:43:48,0.000,0.0,0.0,0.0
08/04/2022,00:44:39,-0.000,0.0,0.0,0.0
08/04/2022,00:45:40,-0.000,0.0,0.0,0.0
08/04/2022,00:46:39,-0.001,0.0,0.0,0.0
08/04/2022,00:47:40,-0.000,0.0,0.0,0.0
08/04/2022,00:48:40,0.000,0.0,0.0,0.0
08/04/2022,00:49:40,0.001,0.0,0.0,0.0
08/04/2022,00:50:40,0.001,0.0,0.0,0.0
08/04/2022,00:51:39,0.000,0.0,0.0,0.0
08/04/2022,00:52:39,0.000,0.0,0.0,0.0
08/04/2022,00:53:48,0.000,0.0,0.0,0.0
08/04/2022,00:55:04,0.000,0.0,0.0,0.0
08/04/2022,00:56:40,0.000,0.0,0.0,0.0
08/04/2022,00:57:40,0.001,0.0,0.0,0.0
08/04/2022,00:58:40,0.000,0.0,0.0,0.0
08/04/2022,00:59:40,0.001,0.0,0.0,0.0
08/04/2022,01:00:39,-0.001,0.0,0.0,0.0
08/04/2022,01:01:48,0.000,0.0,0.0,0.0
08/04/2022,01:02:39,0.000,0.0,0.0,0.0
08/04/2022,01:03:39,0.000,0.0,0.0,0.0
08/04/2022,01:04:40,0.000,0.0,0.0,0.0
08/04/2022,01:05:39,0.000,0.0,0.0,0.0
08/04/2022,01:06:40,0.001,0.0,0.0,0.0
08/04/2022,01:07:39,0.000,0.0,0.0,0.0
08/04/2022,01:08:40,0.000,0.0,0.0,0.0
08/04/2022,01:09:39,-0.001,0.0,0.0,0.0
08/04/2022,01:10:40,0.001,0.0,0.0,0.0
08/04/2022,01:11:40,0.000,0.0,0.0,0.0
08/04/2022,01:12:40,0.000,0.0,0.0,0.0
08/04/2022,01:13:40,0.000,0.0,0.0,0.0
08/04/2022,01:14:40,-0.000,0.0,0.0,0.0
08/04/2022,01:15:48,0.000,0.0,0.0,0.0
08/04/2022,01:16:39,0.000,0.0,0.0,0.0
08/04/2022,01:17:40,0.001,0.0,0.0,0.0
08/04/2022,01:18:40,0.001,0.0,0.0,0.0
08/04/2022,01:19:39,-0.000,0.0,0.0,0.0
08/04/2022,01:20:40,0.001,0.0,0.0,0.0
08/04/2022,01:21:39,0.001,0.0,0.0,0.0
08/04/2022,01:22:40,-0.001,0.0,0.0,0.0
08/04/2022,01:23:40,0.000,0.0,0.0,0.0
08/04/2022,01:24:39,0.000,0.0,0.0,0.0
08/04/2022,01:25:48,0.000,0.0,0.0,0.0
08/04/2022,01:27:40,-0.001,0.0,0.0,0.0
08/04/2022,01:28:39,0.001,0.0,0.0,0.0
08/04/2022,01:29:39,0.000,0.0,0.0,0.0
08/04/2022,01:30:40,0.000,0.0,0.0,0.0
08/04/2022,01:31:39,0.000,0.0,0.0,0.0
08/04/2022,01:32:39,-0.001,0.0,0.0,0.0
08/04/2022,01:33:48,0.000,0.0,0.0,0.0
08/04/2022,01:34:39,0.000,0.0,0.0,0.0
08/04/2022,01:35:48,0.001,0.0,0.0,0.0
08/04/2022,01:36:47,0.000,0.0,0.0,0.0
08/04/2022,01:37:48,0.000,0.0,0.0,0.0
08/04/2022,01:39:41,-0.001,0.0,0.0,0.0
08/04/2022,01:40:41,0.000,0.0,0.0,0.0
08/04/2022,01:41:40,0.000,0.0,0.0,0.0
08/04/2022,01:42:40,0.001,0.0,0.0,0.0
08/04/2022,01:43:48,0.000,0.0,0.0,0.0
08/04/2022,01:44:39,0.000,0.0,0.0,0.0
08/04/2022,01:45:40,0.000,0.0,0.0,0.0
08/04/2022,01:46:48,0.000,0.0,0.0,0.0
08/04/2022,01:48:41,0.001,0.0,0.0,0.0
08/04/2022,01:49:40,0.000,0.0,0.0,0.0
08/04/2022,01:50:40,0.002,0.0,0.0,0.0
08/04/2022,01:51:39,-0.001,0.0,0.0,0.0
08/04/2022,01:52:40,0.000,0.0,0.0,0.0
08/04/2022,01:53:40,-0.001,0.0,0.0,0.0
08/04/2022,01:54:39,0.001,0.0,0.0,0.0
08/04/2022,01:55:40,0.000,0.0,0.0,0.0
08/04/2022,01:56:49,0.001,0.0,0.0,0.0
08/04/2022,01:57:48,0.000,0.0,0.0,0.0
08/04/2022,01:58:40,0.001,0.0,0.0,0.0
08/04/2022,01:59:40,-0.001,0.0,0.0,0.0
08/04/2022,02:00:39,0.001,0.0,0.0,0.0
08/04/2022,02:01:40,0.001,0.0,0.0,0.0
08/04/2022,02:02:40,-0.001,0.0,0.0,0.0
08/04/2022,02:03:40,0.000,0.0,0.0,0.0
08/04/2022,02:04:40,0.000,0.0,0.0,0.0
08/04/2022,02:05:40,0.001,0.0,0.0,0.0
08/04/2022,02:06:48,0.000,0.0,0.0,0.0
08/04/2022,02:07:47,0.000,0.0,0.0,0.0
08/04/2022,02:08:40,0.000,0.0,0.0,0.0
08/04/2022,02:09:39,0.000,0.0,0.0,0.0
08/04/2022,02:10:40,-0.001,0.0,0.0,0.0
08/04/2022,02:11:40,0.000,0.0,0.0,0.0
08/04/2022,02:12:39,0.000,0.0,0.0,0.0
08/04/2022,02:13:40,0.000,0.0,0.0,0.0
08/04/2022,02:14:48,-0.000,0.0,0.0,0.0
08/04/2022,02:16:41,0.001,0.0,0.0,0.0
08/04/2022,02:17:39,0.000,0.0,0.0,0.0
08/04/2022,02:18:40,0.000,0.0,0.0,0.0
08/04/2022,02:19:39,0.000,0.0,0.0,0.0
08/04/2022,02:20:40,-0.001,0.0,0.0,0.0
08/04/2022,02:21:40,0.000,0.0,0.0,0.0
08/04/2022,02:22:40,0.001,0.0,0.0,0.0
08/04/2022,02:23:40,0.000,0.0,0.0,0.0
08/04/2022,02:24:40,-0.000,0.0,0.0,0.0
08/04/2022,02:25:40,0.000,0.0,0.0,0.0
08/04/2022,02:26:39,0.001,0.0,0.0,0.0
08/04/2022,02:27:40,-0.001,0.0,0.0,0.0
08/04/2022,02:28:40,0.000,0.0,0.0,0.0
08/04/2022,02:29:40,-0.001,0.0,0.0,0.0
08/04/2022,02:30:40,0.001,0.0,0.0,0.0
08/04/2022,02:31:40,0.001,0.0,0.0,0.0
08/04/2022,02:32:40,0.000,0.0,0.0,0.0
08/04/2022,02:33:40,0.000,0.0,0.0,0.0
08/04/2022,02:34:41,-0.000,0.0,0.0,0.0
08/04/2022,02:35:40,0.000,0.0,0.0,0.0
08/04/2022,02:36:39,0.001,0.0,0.0,0.0
08/04/2022,02:37:40,0.000,0.0,0.0,0.0
08/04/2022,02:38:40,0.000,0.0,0.0,0.0
08/04/2022,02:39:40,0.001,0.0,0.0,0.0
08/04/2022,02:40:40,0.000,0.0,0.0,0.0
08/04/2022,02:41:39,0.000,0.0,0.0,0.0
08/04/2022,02:42:48,0.000,0.0,0.0,0.0
08/04/2022,02:44:40,0.000,0.0,0.0,0.0
08/04/2022,02:45:40,0.000,0.0,0.0,0.0
08/04/2022,02:46:40,0.000,0.0,0.0,0.0
08/04/2022,02:47:39,0.000,0.0,0.0,0.0
08/04/2022,02:48:39,0.000,0.0,0.0,0.0
08/04/2022,02:49:40,0.001,0.0,0.0,0.0
08/04/2022,02:50:40,-0.000,0.0,0.0,0.0
08/04/2022,02:51:40,0.001,0.0,0.0,0.0
08/04/2022,02:52:40,0.000,0.0,0.0,0.0
08/04/2022,02:53:40,-0.001,0.0,0.0,0.0
08/04/2022,02:54:39,0.001,0.0,0.0,0.0
08/04/2022,02:55:40,0.000,0.0,0.0,0.0
08/04/2022,02:56:40,0.000,0.0,0.0,0.0
08/04/2022,02:57:39,0.001,0.0,0.0,0.0
08/04/2022,02:58:40,0.000,0.0,0.0,0.0
08/04/2022,02:59:39,-0.000,0.0,0.0,0.0
08/04/2022,03:00:48,-0.001,0.0,0.0,0.0
08/04/2022,03:01:39,0.000,0.0,0.0,0.0
08/04/2022,03:02:48,0.000,0.0,0.0,0.0
08/04/2022,03:04:49,0.000,0.0,0.0,0.0
08/04/2022,03:06:41,-0.001,0.0,0.0,0.0
08/04/2022,03:07:40,-0.001,0.0,0.0,0.0
08/04/2022,03:08:40,0.000,0.0,0.0,0.0
08/04/2022,03:09:40,0.000,0.0,0.0,0.0
08/04/2022,03:10:48,0.000,0.0,0.0,0.0
08/04/2022,03:11:40,0.000,0.0,0.0,0.0
08/04/2022,03:12:40,-0.000,0.0,0.0,0.0
08/04/2022,03:13:40,0.001,0.0,0.0,0.0
08/04/2022,03:14:40,-0.000,0.0,0.0,0.0
08/04/2022,03:15:39,0.000,0.0,0.0,0.0
08/04/2022,03:16:47,-0.001,0.0,0.0,0.0
08/04/2022,03:17:39,0.000,0.0,0.0,0.0
08/04/2022,03:18:40,0.001,0.0,0.0,0.0
08/04/2022,03:19:40,0.000,0.0,0.0,0.0
08/04/2022,03:20:39,0.001,0.0,0.0,0.0
08/04/2022,03:21:40,-0.000,0.0,0.0,0.0
08/04/2022,03:22:40,-0.001,0.0,0.0,0.0
08/04/2022,03:23:40,0.001,0.0,0.0,0.0
08/04/2022,03:24:40,0.000,0.0,0.0,0.0
08/04/2022,03:25:48,0.000,0.0,0.0,0.0
08/04/2022,03:26:39,0.000,0.0,0.0,0.0
08/04/2022,03:27:40,0.002,0.0,0.0,0.0
08/04/2022,03:28:39,0.000,0.0,0.0,0.0
08/04/2022,03:29:40,-0.000,0.0,0.0,0.0
08/04/2022,03:30:40,-0.000,0.0,0.0,0.0
08/04/2022,03:31:40,-0.000,0.0,0.0,0.0
08/04/2022,03:32:40,0.000,0.0,0.0,0.0
08/04/2022,03:33:39,0.000,0.0,0.0,0.0
08/04/2022,03:34:40,0.000,0.0,0.0,0.0
08/04/2022,03:35:40,-0.001,0.0,0.0,0.0
08/04/2022,03:36:40,-0.001,0.0,0.0,0.0
08/04/2022,03:37:40,0.000,0.0,0.0,0.0
08/04/2022,03:38:42,0.000,0.0,0.0,0.0
08/04/2022,03:39:40,0.000,0.0,0.0,0.0
08/04/2022,03:40:40,0.000,0.0,0.0,0.0
08/04/2022,03:41:40,-0.000,0.0,0.0,0.0
08/04/2022,03:42:40,0.000,0.0,0.0,0.0
08/04/2022,03:43:48,0.000,0.0,0.0,0.0
08/04/2022,03:44:40,0.000,0.0,0.0,0.0
08/04/2022,03:45:40,0.000,0.0,0.0,0.0
08/04/2022,03:46:49,0.000,0.0,0.0,0.0
08/04/2022,03:47:40,0.000,0.0,0.0,0.0
08/04/2022,03:48:40,0.000,0.0,0.0,0.0
08/04/2022,03:49:40,-0.001,0.0,0.0,0.0
08/04/2022,03:50:40,0.000,0.0,0.0,0.0
08/04/2022,03:51:40,0.000,0.0,0.0,0.0
08/04/2022,03:52:40,0.000,0.0,0.0,0.0
08/04/2022,03:53:40,0.000,0.0,0.0,0.0
08/04/2022,03:54:40,0.000,0.0,0.0,0.0
08/04/2022,03:55:40,0.000,0.0,0.0,0.0
08/04/2022,03:56:40,-0.001,0.0,0.0,0.0
08/04/2022,03:57:39,0.001,0.0,0.0,0.0
08/04/2022,03:58:40,0.001,0.0,0.0,0.0
08/04/2022,03:59:40,0.000,0.0,0.0,0.0
08/04/2022,04:00:48,0.001,0.0,0.0,0.0
08/04/2022,04:02:41,0.001,0.0,0.0,0.0
08/04/2022,04:03:40,0.000,0.0,0.0,0.0
08/04/2022,04:04:40,0.001,0.0,0.0,0.0
08/04/2022,04:05:40,0.000,0.0,0.0,0.0
08/04/2022,04:06:40,-0.000,0.0,0.0,0.0
08/04/2022,04:07:40,0.001,0.0,0.0,0.0
08/04/2022,04:08:40,0.001,0.0,0.0,0.0
08/04/2022,04:09:39,0.000,0.0,0.0,0.0
08/04/2022,04:10:40,-0.000,0.0,0.0,0.0
08/04/2022,04:11:48,0.000,0.0,0.0,0.0
08/04/2022,04:12:39,0.001,0.0,0.0,0.0
08/04/2022,04:13:40,0.001,0.0,0.0,0.0
08/04/2022,04:14:40,0.000,0.0,0.0,0.0
08/04/2022,04:15:40,0.000,0.0,0.0,0.0
08/04/2022,04:16:40,-0.000,0.0,0.0,0.0
08/04/2022,04:17:40,-0.000,0.0,0.0,0.0
08/04/2022,04:18:48,-0.000,0.0,0.0,0.0
08/04/2022,04:19:40,0.000,0.0,0.0,0.0
08/04/2022,04:20:40,0.000,0.0,0.0,0.0
08/04/2022,04:21:49,0.000,0.0,0.0,0.0
08/04/2022,04:22:40,0.000,0.0,0.0,0.0
08/04/2022,04:23:40,0.000,0.0,0.0,0.0
08/04/2022,04:24:40,0.000,0.0,0.0,0.0
08/04/2022,04:25:40,0.000,0.0,0.0,0.0
08/04/2022,04:26:40,0.000,0.0,0.0,0.0
08/04/2022,04:27:40,0.000,0.0,0.0,0.0
08/04/2022,04:28:48,0.000,0.0,0.0,0.0
08/04/2022,04:29:47,0.000,0.0,0.0,0.0
08/04/2022,04:30:40,0.000,0.0,0.0,0.0
08/04/2022,04:31:40,0.000,0.0,0.0,0.0
08/04/2022,04:32:40,0.000,0.0,0.0,0.0
08/04/2022,04:33:40,0.000,0.0,0.0,0.0
08/04/2022,04:34:40,-0.000,0.0,0.0,0.0
08/04/2022,04:35:40,0.000,0.0,0.0,0.0
08/04/2022,04:36:48,0.000,0.0,0.0,0.0
08/04/2022,04:37:40,0.000,0.0,0.0,0.0
08/04/2022,04:38:40,0.000,0.0,0.0,0.0
08/04/2022,04:39:40,0.000,0.0,0.0,0.0
08/04/2022,04:40:40,0.000,0.0,0.0,0.0
08/04/2022,04:41:41,-0.001,0.0,0.0,0.0
08/04/2022,04:42:40,0.000,0.0,0.0,0.0
08/04/2022,04:43:40,-0.001,0.0,0.0,0.0
08/04/2022,04:44:40,0.000,0.0,0.0,0.0
08/04/2022,04:45:40,0.000,0.0,0.0,0.0
08/04/2022,04:46:40,0.000,0.0,0.0,0.0
08/04/2022,04:47:40,0.000,0.0,0.0,0.0
08/04/2022,04:48:41,0.000,0.0,0.0,0.0
08/04/2022,04:49:42,0.001,0.0,0.0,0.0
08/04/2022,04:50:40,0.000,0.0,0.0,0.0
08/04/2022,04:51:40,0.000,0.0,0.0,0.0
08/04/2022,04:52:40,0.000,0.0,0.0,0.0
08/04/2022,04:53:40,0.002,0.0,0.0,0.0
08/04/2022,04:54:49,0.000,0.0,0.0,0.0
08/04/2022,04:56:40,0.000,0.0,0.0,0.0
08/04/2022,04:57:40,0.000,0.0,0.0,0.0
08/04/2022,04:58:40,0.000,0.0,0.0,0.0
08/04/2022,04:59:40,-0.001,0.0,0.0,0.0
08/04/2022,05:00:40,0.000,0.0,0.0,0.0
08/04/2022,05:01:40,0.000,0.0,0.0,0.0
08/04/2022,05:02:40,-0.001,0.0,0.0,0.0
08/04/2022,05:03:42,0.000,0.0,0.0,0.0
08/04/2022,05:04:49,0.000,0.0,0.0,0.0
08/04/2022,05:06:49,0.000,0.0,0.0,0.0
08/04/2022,05:08:40,0.000,0.0,0.0,0.0
08/04/2022,05:09:40,0.001,0.0,0.0,0.0
08/04/2022,05:10:40,-0.000,0.0,0.0,0.0
08/04/2022,05:11:40,0.000,0.0,0.0,0.0
08/04/2022,05:12:40,-0.000,0.0,0.0,0.0
08/04/2022,05:13:41,0.000,0.0,0.0,0.0
08/04/2022,05:14:40,-0.001,0.0,0.0,0.0
08/04/2022,05:15:57,0.001,0.0,0.0,0.0
08/04/2022,05:17:40,0.001,0.0,0.0,0.0
08/04/2022,05:18:40,0.001,0.0,0.0,0.0
08/04/2022,05:19:40,0.001,0.0,0.0,0.0
08/04/2022,05:20:40,0.000,0.0,0.0,0.0
08/04/2022,05:21:40,0.001,0.0,0.0,0.0
08/04/2022,05:23:49,0.002,0.0,0.0,0.0
08/04/2022,05:25:41,0.001,0.0,0.0,0.0
08/04/2022,05:26:40,0.001,0.0,0.0,0.0
08/04/2022,05:27:40,0.000,0.0,0.0,0.0
08/04/2022,05:28:40,0.001,0.0,0.0,0.0
08/04/2022,05:29:40,0.003,0.0,0.0,0.0
08/04/2022,05:30:40,0.002,0.0,0.0,0.0
08/04/2022,05:31:40,0.002,0.0,0.0,0.0
08/04/2022,05:32:40,0.002,0.0,0.0,0.0
08/04/2022,05:33:40,0.002,0.0,0.0,0.0
08/04/2022,05:34:41,0.002,0.0,0.0,0.0
08/04/2022,05:36:41,0.003,0.0,0.0,0.0
08/04/2022,05:38:49,0.002,0.0,0.0,0.0
08/04/2022,05:40:40,0.002,0.0,0.0,0.0
08/04/2022,05:42:41,0.003,0.0,0.0,0.0
08/04/2022,05:44:41,0.003,0.0,0.0,0.0
08/04/2022,05:46:41,0.004,0.0,0.0,0.0
08/04/2022,05:48:40,0.004,0.0,0.0,0.0
08/04/2022,05:50:41,0.005,0.0,0.0,0.0
08/04/2022,05:52:50,0.005,0.0,0.0,0.0
08/04/2022,05:54:41,0.006,0.0,0.0,0.0
08/04/2022,05:56:41,0.005,0.0,0.0,0.0
08/04/2022,05:58:41,0.006,0.0,0.0,0.0
08/04/2022,06:00:41,0.006,0.0,0.0,0.0
08/04/2022,06:02:41,0.007,0.0,0.0,0.0
08/04/2022,06:04:41,0.008,0.0,0.001,0.001
08/04/2022,06:06:41,0.009,0.0,0.001,0.0
08/04/2022,06:08:41,0.010,0.0,0.001,0.0
08/04/2022,06:10:49,0.011,0.0,0.002,0.001
08/04/2022,06:12:41,0.012,0.0,0.002,0.0
08/04/2022,06:14:49,0.013,0.0,0.002,0.0
08/04/2022,06:16:41,0.014,0.0,0.003,0.001
08/04/2022,06:18:41,0.014,0.0,0.003,0.0
08/04/2022,06:20:40,0.015,0.0,0.004,0.001
08/04/2022,06:22:41,0.017,0.0,0.004,0.0
08/04/2022,06:24:41,0.018,0.0,0.005,0.001
08/04/2022,06:26:41,0.019,0.0,0.006,0.001
08/04/2022,06:28:41,0.020,0.0,0.006,0.0
08/04/2022,06:30:40,0.020,0.0,0.007,0.001
08/04/2022,06:32:49,0.022,0.0,0.008,0.001
08/04/2022,06:34:41,0.022,0.0,0.008,0.0
08/04/2022,06:36:41,0.023,0.0,0.009,0.001
08/04/2022,06:38:41,0.024,0.0,0.01,0.001
08/04/2022,06:40:41,0.025,0.0,0.011,0.001
08/04/2022,06:42:41,0.027,0.0,0.011,0.0
08/04/2022,06:44:41,0.028,0.0,0.012,0.001
08/04/2022,06:46:41,0.028,0.0,0.013,0.001
08/04/2022,06:48:41,0.029,0.0,0.014,0.001
08/04/2022,06:50:49,0.031,0.0,0.015,0.001
08/04/2022,06:52:41,0.031,0.0,0.016,0.001
08/04/2022,06:54:41,0.033,0.0,0.017,0.001
08/04/2022,06:56:41,0.034,0.0,0.018,0.001
08/04/2022,06:58:41,0.034,0.0,0.02,0.002
08/04/2022,07:00:41,0.036,0.0,0.021,0.001
08/04/2022,07:02:41,0.039,0.0,0.022,0.001
08/04/2022,07:04:41,0.041,0.0,0.023,0.001
08/04/2022,07:06:43,0.044,0.0,0.025,0.002
08/04/2022,07:08:41,0.049,0.0,0.026,0.001
08/04/2022,07:10:41,0.055,0.0,0.028,0.002
08/04/2022,07:12:41,0.063,0.0,0.03,0.002
08/04/2022,07:14:41,0.069,0.0,0.032,0.002
08/04/2022,07:16:41,0.070,0.0,0.034,0.002
08/04/2022,07:18:41,0.068,0.0,0.037,0.003
08/04/2022,07:20:41,0.068,0.0,0.039,0.002
08/04/2022,07:22:49,0.067,0.0,0.042,0.003
08/04/2022,07:24:41,0.068,0.0,0.044,0.002
08/04/2022,07:26:41,0.068,0.0,0.046,0.002
08/04/2022,07:28:41,0.070,0.0,0.048,0.002
08/04/2022,07:30:41,0.074,0.0,0.05,0.002
08/04/2022,07:32:41,0.075,0.0,0.053,0.003
08/04/2022,07:34:41,0.077,0.0,0.056,0.003
08/04/2022,07:36:41,0.076,0.0,0.058,0.002
08/04/2022,07:38:42,0.079,0.0,0.061,0.003
08/04/2022,07:40:49,0.080,0.0,0.064,0.003
08/04/2022,07:42:41,0.082,0.0,0.066,0.002
08/04/2022,07:44:41,0.084,0.0,0.069,0.003
08/04/2022,07:46:41,0.084,0.0,0.072,0.003
08/04/2022,07:48:27,0.086,0.0,0.074,0.002
08/04/2022,07:50:42,0.088,0.0,0.077,0.003
08/04/2022,07:52:41,0.090,0.0,0.08,0.003
08/04/2022,07:54:42,0.095,0.0,0.083,0.003
08/04/2022,07:56:41,0.102,0.0,0.087,0.004
08/04/2022,07:58:41,0.108,0.0,0.09,0.003
08/04/2022,08:00:41,0.113,0.0,0.094,0.004
08/04/2022,08:02:49,0.115,0.0,0.098,0.004
08/04/2022,08:04:41,0.118,0.0,0.101,0.003
08/04/2022,08:06:41,0.121,0.0,0.105,0.004
08/04/2022,08:08:41,0.125,0.0,0.11,0.005
08/04/2022,08:10:41,0.128,0.0,0.114,0.004
08/04/2022,08:12:49,0.136,0.0,0.118,0.004
08/04/2022,08:14:41,0.143,0.0,0.123,0.005
08/04/2022,08:16:42,0.149,0.0,0.128,0.005
08/04/2022,08:18:41,0.155,0.0,0.133,0.005
08/04/2022,08:20:58,0.168,0.0,0.139,0.006
08/04/2022,08:22:41,0.175,0.0,0.144,0.005
08/04/2022,08:24:41,0.188,0.0,0.15,0.006
08/04/2022,08:26:41,0.202,0.0,0.156,0.006
08/04/2022,08:28:42,0.204,0.0,0.163,0.007
08/04/2022,08:30:42,0.206,0.0,0.17,0.007
08/04/2022,08:32:41,0.207,0.0,0.177,0.007
08/04/2022,08:34:41,0.214,0.0,0.184,0.007
08/04/2022,08:36:41,0.231,1.0,0.191,0.007
08/04/2022,08:38:41,0.260,1.0,0.199,0.008
08/04/2022,08:39:41,0.273,1.0,0.204,0.005
08/04/2022,08:40:48,0.286,1.0,0.209,0.005
08/04/2022,08:42:41,0.308,1.0,0.218,0.009
08/04/2022,08:43:41,0.317,1.0,0.224,0.006
08/04/2022,08:44:41,0.315,1.0,0.229,0.005
08/04/2022,08:45:40,0.310,1.0,0.234,0.005
08/04/2022,08:46:40,0.304,1.0,0.239,0.005
08/04/2022,08:47:49,0.300,1.0,0.245,0.006
08/04/2022,08:49:41,0.305,1.0,0.254,0.009
08/04/2022,08:50:40,0.322,1.0,0.26,0.006
08/04/2022,08:51:40,0.341,1.0,0.265,0.005
08/04/2022,08:52:41,0.362,1.0,0.271,0.006
08/04/2022,08:53:40,0.378,1.0,0.277,0.006
08/04/2022,08:54:40,0.391,1.0,0.283,0.006
08/04/2022,08:55:41,0.411,1.0,0.29,0.007
08/04/2022,08:56:40,0.418,1.0,0.297,0.007
08/04/2022,08:57:40,0.392,1.0,0.304,0.007
08/04/2022,08:58:41,0.386,1.0,0.31,0.006
08/04/2022,08:59:41,0.364,1.0,0.316,0.006
08/04/2022,09:00:40,0.366,1.0,0.323,0.007
08/04/2022,09:01:41,0.375,1.0,0.329,0.006
08/04/2022,09:02:41,0.374,1.0,0.335,0.006
08/04/2022,09:03:41,0.380,1.0,0.341,0.006
08/04/2022,09:04:40,0.390,1.0,0.348,0.007
08/04/2022,09:05:41,0.414,1.0,0.354,0.006
08/04/2022,09:06:40,0.428,1.0,0.361,0.007
08/04/2022,09:07:41,0.449,1.0,0.369,0.008
08/04/2022,09:08:41,0.456,1.0,0.377,0.008
08/04/2022,09:09:41,0.450,1.0,0.384,0.007
08/04/2022,09:10:41,0.476,1.0,0.392,0.008
08/04/2022,09:11:40,0.490,1.0,0.4,0.008
08/04/2022,09:12:40,0.531,1.0,0.409,0.009
08/04/2022,09:13:40,0.553,1.0,0.417,0.008
08/04/2022,09:14:40,0.597,1.0,0.427,0.01
08/04/2022,09:15:40,0.619,1.0,0.437,0.01
08/04/2022,09:16:41,0.577,1.0,0.447,0.01
08/04/2022,09:17:40,0.516,1.0,0.456,0.009
08/04/2022,09:18:40,0.480,1.0,0.464,0.008
08/04/2022,09:19:49,0.435,1.0,0.473,0.009
08/04/2022,09:21:41,0.443,1.0,0.487,0.014
08/04/2022,09:22:41,0.470,1.0,0.494,0.007
08/04/2022,09:23:40,0.533,1.0,0.502,0.008
08/04/2022,09:24:40,0.533,1.0,0.512,0.01
08/04/2022,09:25:41,0.532,1.0,0.52,0.008
08/04/2022,09:26:41,0.552,1.0,0.529,0.009
08/04/2022,09:27:40,0.581,1.0,0.539,0.01
08/04/2022,09:28:40,0.603,1.0,0.549,0.01
08/04/2022,09:29:41,0.579,1.0,0.559,0.01
08/04/2022,09:30:41,0.535,1.0,0.568,0.009
08/04/2022,09:31:40,0.531,1.0,0.577,0.009
08/04/2022,09:32:40,0.595,1.0,0.586,0.009
08/04/2022,09:33:40,0.539,1.0,0.596,0.01
08/04/2022,09:34:40,0.557,1.0,0.605,0.009
08/04/2022,09:35:40,0.537,1.0,0.615,0.01
08/04/2022,09:36:41,0.549,1.0,0.624,0.009
08/04/2022,09:37:40,0.559,1.0,0.633,0.009
08/04/2022,09:38:41,0.616,1.0,0.643,0.01
08/04/2022,09:39:56,0.594,1.0,0.655,0.012
08/04/2022,09:41:41,0.597,1.0,0.673,0.018
08/04/2022,09:42:40,0.607,1.0,0.683,0.01
08/04/2022,09:43:40,0.636,1.0,0.693,0.01
08/04/2022,09:44:41,0.612,1.0,0.703,0.01
08/04/2022,09:45:41,0.570,1.0,0.713,0.01
08/04/2022,09:46:40,0.589,1.0,0.723,0.01
08/04/2022,09:47:41,0.592,1.0,0.733,0.01
08/04/2022,09:48:40,0.605,1.0,0.742,0.009
08/04/2022,09:49:41,0.557,1.0,0.752,0.01
08/04/2022,09:50:49,0.744,2.0,0.764,0.012
08/04/2022,09:51:41,0.734,2.0,0.774,0.01
08/04/2022,09:52:40,0.722,2.0,0.787,0.013
08/04/2022,09:53:41,0.746,2.0,0.799,0.012
08/04/2022,09:54:41,0.791,2.0,0.812,0.013
08/04/2022,09:55:40,0.758,2.0,0.825,0.013
08/04/2022,09:56:41,0.677,2.0,0.837,0.012
08/04/2022,09:57:40,0.631,1.0,0.848,0.011
08/04/2022,09:58:48,0.867,2.0,0.861,0.013
08/04/2022,09:59:40,0.860,2.0,0.873,0.012
08/04/2022,10:00:40,0.783,2.0,0.887,0.014
08/04/2022,10:01:41,0.898,2.0,0.901,0.014
08/04/2022,10:02:40,0.833,2.0,0.916,0.015
08/04/2022,10:03:41,0.646,1.0,0.928,0.012
08/04/2022,10:04:40,0.584,1.0,0.938,0.01
08/04/2022,10:05:41,0.663,2.0,0.948,0.01
08/04/2022,10:06:40,0.808,2.0,0.961,0.013
08/04/2022,10:07:40,0.803,2.0,0.975,0.014
08/04/2022,10:08:40,0.920,2.0,0.989,0.014
08/04/2022,10:09:41,0.913,2.0,1.004,0.015
08/04/2022,10:10:41,0.899,2.0,1.019,0.015
08/04/2022,10:11:49,0.976,2.0,1.037,0.018
08/04/2022,10:12:40,0.886,2.0,1.05,0.013
08/04/2022,10:13:40,0.899,2.0,1.065,0.015
08/04/2022,10:14:40,0.751,2.0,1.079,0.014
08/04/2022,10:15:41,0.745,2.0,1.092,0.013
08/04/2022,10:16:41,0.882,2.0,1.106,0.014
08/04/2022,10:17:40,0.850,2.0,1.121,0.015
08/04/2022,10:18:41,0.885,2.0,1.134,0.013
08/04/2022,10:19:41,0.965,2.0,1.15,0.016
08/04/2022,10:20:40,0.870,2.0,1.165,0.015
08/04/2022,10:21:49,0.900,2.0,1.182,0.017
08/04/2022,10:22:57,0.940,2.0,1.199,0.017
08/04/2022,10:24:41,0.899,2.0,1.226,0.027
08/04/2022,10:25:41,0.973,2.0,1.241,0.015
08/04/2022,10:26:40,1.028,2.0,1.258,0.017
08/04/2022,10:27:40,1.007,2.0,1.275,0.017
08/04/2022,10:28:41,0.994,2.0,1.292,0.017
08/04/2022,10:29:49,1.078,2.0,1.312,0.02
08/04/2022,10:30:40,1.054,2.0,1.327,0.015
08/04/2022,10:31:40,1.074,2.0,1.344,0.017
08/04/2022,10:32:40,1.099,3.0,1.363,0.019
08/04/2022,10:33:40,1.106,3.0,1.381,0.018
08/04/2022,10:34:40,1.117,3.0,1.399,0.018
08/04/2022,10:35:41,1.122,3.0,1.418,0.019
08/04/2022,10:36:41,1.133,3.0,1.438,0.02
08/04/2022,10:37:40,1.143,3.0,1.456,0.018
08/04/2022,10:38:41,1.146,3.0,1.475,0.019
08/04/2022,10:39:40,1.143,3.0,1.494,0.019
08/04/2022,10:40:40,1.153,3.0,1.513,0.019
08/04/2022,10:41:40,1.140,3.0,1.532,0.019
08/04/2022,10:42:41,1.171,3.0,1.552,0.02
08/04/2022,10:43:40,1.178,3.0,1.571,0.019
08/04/2022,10:44:41,1.190,3.0,1.591,0.02
08/04/2022,10:45:41,1.198,3.0,1.611,0.02
08/04/2022,10:46:40,1.186,3.0,1.631,0.02
08/04/2022,10:47:41,1.182,3.0,1.65,0.019
08/04/2022,10:48:41,1.172,3.0,1.67,0.02
08/04/2022,10:49:41,1.165,3.0,1.69,0.02
08/04/2022,10:50:40,1.169,3.0,1.709,0.019
08/04/2022,10:51:40,1.144,3.0,1.728,0.019
08/04/2022,10:52:41,1.181,3.0,1.747,0.019
08/04/2022,10:53:41,1.163,3.0,1.767,0.02
08/04/2022,10:54:40,1.214,3.0,1.787,0.02
08/04/2022,10:55:41,1.233,3.0,1.807,0.02
08/04/2022,10:56:41,1.284,3.0,1.828,0.021
08/04/2022,10:57:41,1.300,3.0,1.85,0.022
08/04/2022,10:58:41,1.278,3.0,1.871,0.021
08/04/2022,10:59:40,1.218,3.0,1.892,0.021
08/04/2022,11:00:40,1.157,3.0,1.912,0.02
08/04/2022,11:01:40,1.143,3.0,1.931,0.019
08/04/2022,11:02:41,1.147,3.0,1.951,0.02
08/04/2022,11:03:41,1.176,3.0,1.97,0.019
08/04/2022,11:04:48,1.158,3.0,1.992,0.022
08/04/2022,11:05:40,1.109,3.0,2.008,0.016
08/04/2022,11:06:41,1.028,2.0,2.028,0.02
08/04/2022,11:07:40,0.788,2.0,2.043,0.015
08/04/2022,11:08:41,1.218,3.0,2.061,0.018
08/04/2022,11:09:41,0.884,2.0,2.081,0.02
08/04/2022,11:10:28,0.768,2.0,2.09,0.009
08/04/2022,11:11:41,0.698,2.0,2.106,0.016
08/04/2022,11:12:41,0.756,2.0,2.118,0.012
08/04/2022,11:13:41,0.705,2.0,2.13,0.012
08/04/2022,11:14:40,0.714,2.0,2.142,0.012
08/04/2022,11:15:41,0.732,2.0,2.154,0.012
08/04/2022,11:16:49,0.757,2.0,2.168,0.014
08/04/2022,11:17:40,0.886,2.0,2.179,0.011
08/04/2022,11:18:41,1.236,3.0,2.2,0.021
08/04/2022,11:19:57,1.305,3.0,2.227,0.027
08/04/2022,11:21:41,1.316,3.0,2.266,0.039
08/04/2022,11:22:41,1.347,3.0,2.287,0.021
08/04/2022,11:23:41,1.360,3.0,2.31,0.023
08/04/2022,11:24:40,1.379,3.0,2.332,0.022
08/04/2022,11:25:40,1.336,3.0,2.355,0.023
08/04/2022,11:26:41,1.137,3.0,2.377,0.022
08/04/2022,11:27:40,1.318,3.0,2.397,0.02
08/04/2022,11:28:40,1.348,3.0,2.419,0.022
08/04/2022,11:29:43,1.325,3.0,2.442,0.023
08/04/2022,11:30:40,1.364,3.0,2.464,0.022
08/04/2022,11:31:41,1.332,3.0,2.486,0.022
08/04/2022,11:32:49,0.818,2.0,2.506,0.02
08/04/2022,11:33:49,0.767,2.0,2.519,0.013
08/04/2022,11:34:41,0.748,2.0,2.53,0.011
08/04/2022,11:35:40,0.728,2.0,2.542,0.012
08/04/2022,11:36:41,0.718,2.0,2.554,0.012
08/04/2022,11:37:41,0.738,2.0,2.567,0.013
08/04/2022,11:38:41,0.748,2.0,2.579,0.012
08/04/2022,11:39:40,0.762,2.0,2.591,0.012
08/04/2022,11:40:40,0.790,2.0,2.604,0.013
08/04/2022,11:41:42,0.821,2.0,2.618,0.014
08/04/2022,11:42:41,0.844,2.0,2.632,0.014
08/04/2022,11:43:41,1.058,2.0,2.646,0.014
08/04/2022,11:44:40,1.043,2.0,2.664,0.018
08/04/2022,11:45:41,1.069,2.0,2.682,0.018
08/04/2022,11:46:40,1.050,2.0,2.699,0.017
08/04/2022,11:47:41,1.100,3.0,2.718,0.019
08/04/2022,11:48:41,1.273,3.0,2.738,0.02
08/04/2022,11:49:41,1.327,3.0,2.759,0.021
08/04/2022,11:50:41,1.302,3.0,2.781,0.022
08/04/2022,11:51:40,1.222,3.0,2.802,0.021
08/04/2022,11:52:40,1.207,3.0,2.821,0.019
08/04/2022,11:53:41,1.332,3.0,2.843,0.022
08/04/2022,11:54:41,1.312,3.0,2.865,0.022
08/04/2022,11:55:41,1.306,3.0,2.887,0.022
08/04/2022,11:56:49,1.298,3.0,2.911,0.024
08/04/2022,11:57:40,1.284,3.0,2.93,0.019
08/04/2022,11:58:40,1.279,3.0,2.951,0.021
08/04/2022,11:59:41,1.287,3.0,2.972,0.021